Printer-friendly version

IAU Minor Planet Center

Minor Planet Center

MPEC 2003-Q38 : COMET C/2003 L2 (LINEAR)

The following Minor Planet Electronic Circular may be linked-to from your own Web pages, but must not otherwise be redistributed electronically.


Read MPEC 2003-Q37 Read MPEC 2003-Q39


M.P.E.C. 2003-Q38                                Issued 2003 Aug. 26, 19:06 UT

     The Minor Planet Electronic Circulars contain information on unusual
         minor planets and routine data on comets.  They are published
   on behalf of Commission 20 of the International Astronomical Union by the
          Minor Planet Center, Smithsonian Astrophysical Observatory,
                          Cambridge, MA 02138, U.S.A.

             Prepared using the Tamkin Foundation Computer Network

                              MPC@CFA.HARVARD.EDU
          URL http://cfa-www.harvard.edu/iau/mpc.html  ISSN 1523-6714

                           COMET C/2003 L2 (LINEAR)

Observations:
    CK03L020  C2003 07 24.59444 17 56 01.55 +66 08 42.5          17.3 T      372
    CK03L020  C2003 08 04.63438 17 26 52.33 +66 30 29.4          16.5 T      372
    CK03L020  C2003 08 19.87509 16 54 15.28 +65 55 25.9          17.4 N      442
    CK03L020  C2003 08 19.87725 16 54 15.09 +65 55 23.6          17.3 N      442
    CK03L020  C2003 08 20.86000 16 52 33.26 +65 51 18.0                      A46
    CK03L020  C2003 08 20.86443 16 52 33.06 +65 51 17.3                      A46
    CK03L020  C2003 08 20.89101 16 52 30.36 +65 51 10.7                      A46
    CK03L020  C2003 08 20.89396 16 52 29.99 +65 51 09.1                      A46
    CK03L020  C2003 08 20.89543 16 52 29.83 +65 51 09.5                      A46
    CK03L020  C2003 08 20.89838 16 52 29.73 +65 51 08.5                      A46
    CK03L020  C2003 08 21.30891 16 51 48.21 +65 49 19.3          16.9 T      785
    CK03L020  C2003 08 21.32535 16 51 45.97 +65 49 15.3          16.9 T      785
    CK03L020  C2003 08 22.85714 16 49 16.33 +65 42 32.9                      A46
    CK03L020  C2003 08 22.85861 16 49 16.23 +65 42 32.9                      A46
    CK03L020  C2003 08 22.86009 16 49 16.18 +65 42 32.3                      A46
    CK03L020  C2003 08 22.86304 16 49 15.91 +65 42 32.2                      A46
    CK03L020  C2003 08 22.86451 16 49 15.71 +65 42 31.6                      A46
    CK03L020  C2003 08 22.86600 16 49 15.70 +65 42 30.7                      A46
    CK03L020  C2003 08 22.98683 16 49 04.27 +65 41 57.1          17.1 T      213
    CK03L020  C2003 08 22.98856 16 49 03.93 +65 41 57.4          17.1 T      213
    CK03L020  C2003 08 22.99029 16 49 03.70 +65 41 56.2          17.1 T      213
    CK03L020  C2003 08 24.93141 16 46 06.11 +65 32 50.1          16.7 T      A32
    CK03L020  C2003 08 24.93582 16 46 05.67 +65 32 49.6          16.7 T      A32
    CK03L020  C2003 08 24.94169 16 46 05.09 +65 32 47.6          16.7 T      A32
    CK03L020  C2003 08 24.94757 16 46 04.53 +65 32 45.2          16.6 T      A32
    CK03L020  C2003 08 25.09948 16 45 51.16 +65 32 03.7          17.0 N      785
    CK03L020  C2003 08 25.11385 16 45 49.72 +65 31 58.9          17.8 N      785
    CK03L020  C2003 08 26.10205 16 44 24.52 +65 27 09.8          17.6 N      785
    CK03L020  C2003 08 26.11404 16 44 23.65 +65 27 05.7          17.4 N      785

Observer details:
213 Observatorio Montcabre.  Observer R. Naves.  Measurer M. Campas.  0.30-m
    f/5.5 Schmidt-Cassegrain + CCD.
372 Geisei.  Observer T. Seki.  0.60-m f/3.5 reflector.
442 Gualba Observatory.  Observer A. Sanchez.  0.31-m f/3.3 Schmidt-Cassegrain
    + CCD.
785 Fitz-Randolph Observatory, Princeton.  Observers J. Maffei, H. Ashley.
    0.91-m f/13.6 Cassegrain + CCD.
A32 Panker.  Observer H. Denzau.  0.36-m f/5.5 Schmidt-Cassegrain + CCD.
A46 Lelekovice.  Observer K. Hornoch.  0.35-m f/4.7 reflector + CCD.

Orbital elements:
    C/2003 L2 (LINEAR)
Epoch 2004 Feb. 5.0 TT = JDT 2453040.5
T 2004 Jan. 19.24758 TT                                 MPC
q   2.8644314            (2000.0)            P               Q
z  +0.0065067      Peri.  119.86053     +0.08883254     -0.12251310
 +/-0.0000162      Node   273.55573     +0.12109810     +0.98637328
e   0.9813620      Incl.   82.05031     +0.98865769     -0.10981028
Residuals in seconds of arc
030612 704  0.8-  0.1-    030708 785  0.9+  0.4-    030802 215  0.7-  1.0-
030612 704  0.1-  0.6+    030708 785  0.7-  0.3-    030802 215  0.1+  0.1-
030612 704 (2.9+  0.0 )   030708 H41  1.5-  0.5+    030802 215  0.1-  0.5-
030612 620  0.2-  0.6-    030708 H41  0.3-  0.5-    030802 232  0.4-  1.1+
030612 620  0.6-  1.3-    030709 704  0.2-  0.1-    030803 H41  0.6-  0.1-
030613 A50  0.0   0.2-    030709 704  0.2+  0.1+    030803 H41  0.7-  0.4+
030613 A50  0.4-  0.1-    030709 704  0.1-  0.7+    030803 349  0.4-  1.2-
030613 A50  1.0+  0.6-    030709 H41  0.2-  0.6+    030803 349  0.3-  1.0-
030613 A50  0.5+  1.6+    030709 704  0.5+  0.3+    030803 349  1.0+  0.1-
030613 176  0.3+  0.5-    030709 H41  0.3-  0.4+    030803 349  0.7-  0.2+
030613 176  0.4+  0.4-    030709 704  0.1+  0.5+    030804 H41  0.1+  0.1-
030613 118 (3.0+  1.0+)   030711 H41  0.1+  0.2-    030804 H41  0.1+  0.2-
030613 176  0.6+  0.5-    030711 H41  0.6+  0.6-    030804 372  0.7-  1.7+
030613 176  0.8+  0.5-    030711 H41  0.6-  0.2-    030805 442  0.8+  0.1+
030613 118  0.4+  0.8+    030711 H41  0.1+  0.2-    030806 939  0.3-  0.0
030613 118  1.2-  1.8+    030712 118  0.3+  0.2+    030806 939  0.2-  0.2+
030614 649  0.5-  0.3+    030712 118  0.1+  0.5+    030806 939  0.1-  0.1-
030614 649  0.0   0.2-    030712 118  0.1+  0.4+    030806 213  0.6+  0.6-
030614 649  0.1-  0.1+    030712 213  0.0   0.8-    030806 213  0.3-  0.2+
030616 213  1.0-  1.5+    030712 213  0.3+  0.4+    030806 213  0.3+  0.8-
030616 213  1.3-  1.6-    030712 213  1.3-  1.6+    030807 H41  0.6-  0.3-
030616 213 (1.6+  3.5+)   030714 H41 (2.1-  0.9-)   030807 H41  0.6+  0.2-
030616 118  0.0   0.1-    030714 H41  0.3+  0.1-    030807 A46  1.5-  1.9+
030616 118  0.3+  0.3-    030714 H41  0.1+  1.3+    030807 A46  0.1-  0.1+
030616 118  1.5+  0.1-    030715 H41  0.5+  0.1-    030807 A46  0.5+  1.3+
030618 620  0.4-  0.1-    030715 H41  0.6-  0.1+    030807 A46  0.3-  0.8-
030618 620  0.8-  0.2-    030715 H41  0.7-  1.3+    030807 A46  0.2-  0.2+
030618 620  0.8-  0.4-    030716 H41  0.1-  0.1-    030807 A46 (2.5+  0.7-)
030620 H41  1.0-  0.4-    030716 H41  0.5+  0.2-    030810 A46  0.8-  1.3+
030620 H41  0.2+  1.6+    030716 H41  0.1-  0.0     030810 A46  0.9-  0.2-
030620 118  1.0-  0.1+    030717 118  1.3+  0.6+    030810 A46  0.1-  0.0
030620 118  0.2+  0.2+    030717 118  0.3+  0.1-    030810 A46  0.4+  1.2-
030620 118  0.2-  0.1+    030717 H41  0.5+  0.2-    030810 A46  0.2+  0.6-
030620 118  0.0   0.3-    030717 H41  0.3-  0.6+    030810 A46  0.9+  0.1-
030620 118  0.1-  0.3-    030717 704  0.1-  0.1+    030815 A46  0.9+  0.9-
030621 130  1.1-  0.4-    030717 704  0.8+  0.3-    030815 A46  0.1+  1.6-
030621 130  0.7-  0.7-    030717 704  0.1-  0.1+    030815 A46  0.2-  1.8-
030621 215  0.7-  1.1-    030717 704  0.6+  0.2+    030815 A46  0.7+  0.3-
030621 215  0.4-  0.2+    030718 204  0.3+  0.2-    030815 A46  1.0-  0.4-
030621 215  0.5-  0.5-    030718 204  0.4+  0.1-    030815 A46  0.5-  1.8-
030621 130  0.3-  0.3-    030718 204  0.2-  0.2+    030816 785 (2.0-  0.6+)
030622 204  0.5-  0.0     030718 H41  0.8+  0.5-    030816 785  0.7+  0.1+
030622 204  0.2-  0.1-    030718 H41  0.3-  0.1+    030816 785  0.3-  0.1-
030622 204  0.4-  0.2+    030718 H41  0.5+  0.1-    030816 H41  0.5-  0.8+
030622 204  0.2-  0.5-    030718 442  1.3+  0.6+    030816 H41  0.5-  0.8+
030622 204  0.2+  0.1-    030720 232  1.4+  0.1+    030816 A46  0.3-  1.3+
030622 H41  0.5+  0.9+    030720 232  0.2+  1.7+    030816 A46  0.4-  0.2+
030622 H41  0.0   0.2-    030724 372  0.1+  1.7-    030816 A46  0.5+  0.7+
030622 213  0.2+  0.9-    030725 213  0.5+  1.2-    030816 A46  0.9+  1.0+
030622 213  0.3+  0.6-    030725 213  0.0   0.3-    030816 A46  1.3+  0.2+
030623 H41  0.5-  0.1+    030725 213  0.0   0.2+    030816 A46  1.3+  0.4+
030624 785 (8.0+  1.9-)   030726 232  0.6-  0.3-    030817 H41  0.2-  0.2+
030624 785  1.3+  0.5-    030726 232  0.8+  0.9-    030817 H41  0.4+  0.2-
030624 785  2.0+  0.6-    030728 H41  0.6+  0.2-    030817 232  0.9-  0.7+
030624 H41 (3.6+  3.9+)   030728 H41  0.5+  0.1-    030817 232 (2.3+  2.7+)
030625 H41  0.1+  0.3-    030728 H41  0.6+  0.5+    030817 232  1.0-  0.9+
030625 H41  0.1+  0.3+    030729 A02  1.3-  0.0     030818 785 (2.1+  2.2-)
030625 372  1.0+  1.2-    030729 A02  0.8-  0.9-    030818 785  0.2+  0.5+
030625 118  0.2+  0.3+    030729 A02  0.4-  1.3-    030818 785  0.7+  0.2+
030625 118  0.1-  0.4+    030729 A02  0.1+  0.4-    030818 785  1.1+  0.9+
030625 118  0.0   0.2+    030729 A02  0.0   0.4-    030818 213  0.2+  0.5+
030625 118  0.3+  0.0     030729 A02  0.3-  0.4-    030818 213  1.3+  1.0+
030625 118  0.3-  0.5+    030730 785  0.6-  1.0+    030819 442  1.3-  1.0+
030627 H41  0.8+  0.5+    030730 785 (0.4-  3.1+)   030819 442  1.1-  0.7-
030627 H41  0.8+  0.9+    030730 340  0.3+  1.0-    030820 A46  1.2-  1.2-
030628 J95  0.2-  0.4+    030730 340 (0.1+  2.1+)   030820 A46  0.4+  0.8-
030628 J95  0.2-  0.2+    030730 340  0.3-  0.2-    030820 A46  0.6+  0.4-
030628 J95  0.3-  0.2+    030730 A02  0.6+  0.7-    030820 A46  0.2+  1.2-
030628 H41  0.8+  0.9+    030730 A02  0.5-  0.1-    030820 A46  0.2+  0.4-
030628 H41  1.2+  0.4+    030730 A02  1.1-  0.1+    030820 A46  1.4+  0.7-
030629 H41  1.5+  0.3-    030731 H41  0.8+  0.1-    030821 785 (1.8+  3.1-)
030629 H41  0.8+  1.1+    030731 H41  0.3+  0.2-    030821 785 (1.9-  2.7-)
030702 785  0.1+  1.3+    030731 A02  0.1-  0.7-    030822 A46  1.0-  0.4-
030702 785 (1.3-  2.7-)   030731 A02  0.2-  0.5-    030822 A46  0.7-  0.0
030703 H41  0.7-  0.3+    030731 A02  0.3-  0.3-    030822 A46  0.1-  0.2-
030703 H41  0.1+  0.4+    030801 H41  0.2-  0.4+    030822 A46  0.0   0.5+
030703 H41  0.6-  0.1-    030801 H41  0.3-  0.4+    030822 A46  0.4-  0.3+
030704 H41  0.1+  1.3+    030801 A02  0.8-  0.0     030822 A46  0.4+  0.2-
030704 H41 (2.1-  2.8+)   030801 A02  0.6-  0.2+    030822 213  1.5+  0.2-
030705 H41  0.4-  0.5-    030801 A02  0.7-  0.5+    030822 213  0.4+  0.6+
030705 H41  0.2+  0.1-    030801 213 (2.3-  1.6-)   030822 213  0.0   0.1-
030706 H41  0.4+  0.2+    030801 213  1.4-  1.4-    030824 A32  1.0+  0.2-
030706 H41  0.6-  0.7+    030802 232  0.2+  0.7-    030824 A32  0.7+  0.6+
030706 H41  0.4+  0.6+    030802 232  0.2+  0.0     030824 A32  0.4+  0.3+
030707 699  0.2-  0.7-    030802 232  0.2+  0.2-    030824 A32  0.1+  0.3-
030707 699  0.1+  0.2-    030802 H41  0.5+  0.4-    030825 785  0.1+  1.0+
030707 H41  1.2+  1.6-    030802 H41  0.6+  0.1-    030825 785  0.9-  0.5+
030707 699  0.1+  1.0+    030802 360  0.2-  0.3+    030826 785  1.6-  1.3+
030707 699  0.2-  0.8-    030802 360  0.2-  0.0     030826 785  0.6-  0.9+

     The "original" and "future" barycentric values of 1/a are +0.006377
and +0.006831 (+/- 0.000016) AU**-1, respectively.

Brian G. Marsden             (C) Copyright 2003 MPC           M.P.E.C. 2003-Q38

Read MPEC 2003-Q37 Read MPEC 2003-Q39


Our Web policy. Index to the CBAT/MPC/ICQ pages.


Valid HTML 4.01!